Regional Weather Roundup
Issued by NWS

Home | Current Version | Previous Version | Graphics & Text | Print | Product List | Glossary On
Versions: 1 2 3 4 5 6 7 8 9 10 11 12 13 14 15 16 17 18 19 20 21 22 23 24 25 26 27 28 29 30 31 32 33 34 35 36 37 38 39 40 41 42 43 44 45 46 47 48 49 50
086
ASUS44 KLIX 251601
RWRLA
LOUISIANA WEATHER ROUNDUP
NATIONAL WEATHER SERVICE NEW ORLEANS LA
1100 AM CDT FRI JUL 25 2014

NOTE: "FAIR" INDICATES FEW OR NO CLOUDS BELOW 12,000 FEET WITH NO
      SIGNIFICANT WEATHER AND/OR OBSTRUCTIONS TO VISIBILITY.
      SKY/WX - SKY CONDITION AND SIGNIFICANT WEATHER.
      TMP - AIR TEMPERATURE.    DP   - DEWPOINT TEMPERATURE.
      RH  - RELATIVE HUMIDITY.  PRES - PRESSURE.
      HX  - HEAT INDEX.         WCI  - WIND CHILL INDEX.

*  THESE STATIONS ARE NOT NWS OR FAA STATIONS AND ARE NOT UNDER
   NWS QUALITY CONTROL.

LAZ040-048-061>063-065-066-069-251700-
SOUTHEAST LOUISIANA

CITY           SKY/WX    TMP DP  RH WIND       PRES   REMARKS
N.O. AUDUBON     N/A     93  77  59 MISG        N/A  HX 106
N.O. INTL ARPT MOSUNNY   88  75  65 W5        30.05S HX  97
N.O. LAKEFRONT SUNNY     85  77  77 NW9       30.05F HX  95
N.O. DOWNTOWN* PTSUNNY   88  73  62 W5        30.05S HX  96
SLIDELL        SUNNY     87  74  64 CALM      30.03F HX  95
BATON ROUGE    SUNNY     87  73  62 W6        30.05S
BOOTHVILLE     MOSUNNY   85  74  69 W8        30.06S
BELLE CHASSE   PTSUNNY   88  74  63 VRB3      30.05R HX  96
BOGALUSA*      FAIR      88  74  63 W6        30.05S HX  97
GALLIANO*      NOT AVBL
NEW ROADS*     FAIR      85  76  72 SW3       30.05S
GONZALES*      FAIR      86  76  72 W6        30.05S HX  96
HAMMOND*       MOSUNNY   90  72  55 W6        30.06S HX  96
HOUMA*         MOSUNNY   90  72  55 W3        30.05F HX  96
PORT FOURCHON* MOSUNNY   86  75  70 W10       30.08R HX  95

$$

LAZ041-044-053-054-251700-
SOUTHWEST LOUISIANA

CITY           SKY/WX    TMP DP  RH WIND       PRES   REMARKS
LAKE CHARLES   SUNNY     86  75  69 CALM      30.03F HX  95
LAFAYETTE      MOSUNNY   87  75  67 VRB5      30.05F HX  96
PATTERSON      MOSUNNY   88  77  70 W8        30.09F HX 100
SALT POINT       N/A     89  76  65 CALM      30.05S HX 100
NEW IBERIA     MOSUNNY   88  76  67 W7        30.05F HX  99
CHENAULT AIRPK NOT AVBL

$$

LAZ027-028-251700-
CENTRAL LOUISIANA

CITY           SKY/WX    TMP DP  RH WIND       PRES   REMARKS
FORT POLK      MOSUNNY   86  72  62 CALM      30.05F
ALEXANDRIA INT SUNNY     87  76  69 CALM      30.03F HX  97
ALEXANDRIA     MOSUNNY   89  75  63 VRB3      30.05S HX  99

$$

LAZ001-002-251700-
NORTHWEST LOUISIANA

CITY           SKY/WX    TMP DP  RH WIND       PRES   REMARKS
SHREVEPORT     PTSUNNY   85  73  67 CALM      30.06R
BARKSDALE AFB  CLOUDY    83  73  71 S6        30.06R
DTN SHREVEPORT CLOUDY    86  73  65 CALM      30.06R

$$

LAZ014-016-251700-
NORTHEAST LOUISIANA

CITY           SKY/WX    TMP DP  RH WIND       PRES   REMARKS
MONROE         SUNNY     83  71  67 CALM      30.07F
TALLULAH       SUNNY     86  73  65 VRB5      30.06R

$$




USA.gov is the U.S. government's official web portal to all federal, state and local government web resources and services.